Cleveland, OH

9:42 PM EST on December 13, 2019 (GMT -0500)
Cleveland-Hopkins International

Weather History for KCLE - November, 2019

Change the Weather History Date:

Wednesday, November 13, 2019

  Actual Average Record
Temperature  
Mean Temperature 20 °F 45 °F  
Max Temperature 28 °F 52 °F 72 °F (1989)
Min Temperature 12 °F 38 °F 15 °F (1911)
Degree Days  
Heating Degree Days 45 20  
Month to date heating degree days 355 234  
Since 1 July heating degree days 616 694  
Cooling Degree Days 0 0  
Month to date cooling degree days 0 0  
Year to date cooling degree days 1095 816  
Moisture  
Dew Point 12 °F    
Average Humidity 67    
Maximum Humidity 84    
Minimum Humidity 55    
Precipitation  
Precipitation T in 0.12 in 0.69 in (1972)
Month to date precipitation 1.32 1.53  
Year to date precipitation 36.75 33.95  
Snow  
Snow 0.10 in 0.10 in - ()
Month to date snowfall 3.2 1.2  
Since 1 July snowfall 3.2 1.4  
Since 1 September snowfall 3.2 1.4  
Snow Depth 2.0 in    
Sea Level Pressure  
Sea Level Pressure 30.37 in    
Wind  
Wind Speed 9 mph ()    
Max Wind Speed 20 mph    
Max Gust Speed 24 mph    
Visibility 9.5 miles    
Events Snow    
T = Trace of Precipitation, MM = Missing Value Source: Averaged Metar Reports

Daily Weather History Graph

Daily Weather History Graph

Search for Another Location

Airport or City:

Astronomy

Nov. 13, 2019 Rise Set
Actual Time 7:13 AM EST 5:09 PM EST
Civil Twilight 6:43 AM EST 5:39 PM EST
Nautical Twilight 6:10 AM EST 6:12 PM EST
Astronomical Twilight 5:37 AM EST 6:45 PM EST
Moon 6:11 PM EST (11/13) 8:05 AM EST (11/13)
Length of Visible Light 10h 55m
Length of Day
9h 56m
Full, 99% of the Moon is Illuminated
Nov 13
Full
Nov 19
Last Quarter
Nov 26
New
Dec 4
First Quarter
Dec 12
Full

Hourly Weather History & Observations

Time (EST) Temp. Windchill Dew Point Humidity Pressure Visibility Wind Dir Wind Speed Gust Speed Precip Events Conditions
12:51 AM 21.0 °F 9.9 °F 12.0 °F 68% 30.40 in 9.0 mi WSW 10.4 mph - 0.00 in Snow Light Snow
1:51 AM 19.9 °F 8.6 °F 12.9 °F 74% 30.40 in 9.0 mi WSW 10.4 mph - 0.00 in Snow Light Snow
2:51 AM 19.9 °F 7.9 °F 12.0 °F 71% 30.41 in 9.0 mi WSW 11.5 mph - 0.00 in Snow Light Snow
3:51 AM 19.0 °F 6.8 °F 12.0 °F 74% 30.42 in 5.0 mi WSW 11.5 mph - 0.00 in Snow Light Snow
4:51 AM 18.0 °F 7.7 °F 10.9 °F 74% 30.43 in 9.0 mi SSW 8.1 mph - 0.00 in Snow Light Snow
5:37 AM 17.1 °F 6.6 °F 10.0 °F 74% 30.40 in 9.0 mi SW 8.1 mph - 0.00 in Snow Light Snow
5:51 AM 16.0 °F 4.4 °F 10.0 °F 77% 30.43 in 9.0 mi SSW 9.2 mph - 0.00 in Snow Light Snow
6:18 AM 15.1 °F 4.2 °F 10.0 °F 80% 30.40 in 9.0 mi SW 8.1 mph - 0.00 in Snow Light Snow
6:51 AM 12.9 °F 1.6 °F 8.1 °F 81% 30.44 in 9.0 mi SSW 8.1 mph - 0.00 in   Scattered Clouds
7:51 AM 12.9 °F 2.6 °F 9.0 °F 84% 30.45 in 10.0 mi SSW 6.9 mph - N/A   Scattered Clouds
8:51 AM 16.0 °F 7.4 °F 10.0 °F 77% 30.45 in 10.0 mi SSW 5.8 mph - N/A   Scattered Clouds
9:51 AM 21.0 °F 10.6 °F 10.9 °F 65% 30.46 in 10.0 mi SSW 9.2 mph - N/A   Scattered Clouds
10:51 AM 23.0 °F 13.9 °F 10.9 °F 60% 30.45 in 10.0 mi SSW 8.1 mph - N/A   Overcast
11:51 AM 23.0 °F 12.4 °F 12.0 °F 63% 30.43 in 10.0 mi South 10.4 mph - N/A   Overcast
12:51 PM 24.1 °F 13.7 °F 12.0 °F 60% 30.42 in 10.0 mi South 10.4 mph - N/A   Overcast
1:51 PM 25.0 °F 15.5 °F 12.0 °F 58% 30.39 in 10.0 mi South 9.2 mph - N/A   Mostly Cloudy
2:51 PM 26.1 °F 17.6 °F 14.0 °F 60% 30.37 in 10.0 mi SSW 8.1 mph - N/A   Overcast
3:51 PM 26.1 °F 15.0 °F 14.0 °F 60% 30.34 in 10.0 mi SSE 12.7 mph - N/A   Overcast
4:51 PM 26.1 °F 15.6 °F 12.9 °F 58% 30.32 in 10.0 mi South 11.5 mph - N/A   Overcast
5:51 PM 25.0 °F 13.6 °F 14.0 °F 63% 30.30 in 10.0 mi SSE 12.7 mph - N/A   Overcast
6:51 PM 26.1 °F 15.6 °F 14.0 °F 60% 30.27 in 10.0 mi SSE 11.5 mph - N/A   Mostly Cloudy
7:51 PM 26.1 °F 16.2 °F 15.1 °F 63% 30.27 in 10.0 mi South 10.4 mph - N/A   Mostly Cloudy
8:51 PM 27.0 °F 15.6 °F 15.1 °F 61% 30.25 in 10.0 mi South 13.8 mph - N/A   Mostly Cloudy
9:51 PM 27.0 °F 14.7 °F 16.0 °F 63% 30.23 in 10.0 mi South 16.1 mph 23.0 mph N/A   Mostly Cloudy
10:51 PM 28.0 °F 17.5 °F 16.0 °F 61% 30.21 in 10.0 mi South 12.7 mph - N/A   Overcast
11:51 PM 28.0 °F 17.5 °F 17.1 °F 63% 30.21 in 10.0 mi South 12.7 mph - N/A   Overcast